[[{"header":{"parameterUnit":"m.s-1","parameterCategory":1,"la1":30.2991,"la2":30.254,"lo1":-89.0895,"lo2":-89.0444,"dy":0.0017,"dx":0.0017,"nx":28,"ny":28,"refTime":"2024-02-23T09:00:00:Z","depth":0,"parameterNumber":2,"parameterNumberName":"U-component_of_WINDS"},"data":[0,0,0,0,0,0,0,0,0,0,0,0,0,0,0,0,0,0,0,0,0,0,0,0,0,0,0,0,0,0,0,0,0,0,0,0,0,0,0,0,0,0,0,0,0,0,0,0,0,0,0,0,0,0,0,0,0,0,4.2686,4.2686,0,4.2657,4.2657,4.2657,4.2605,4.2604,4.2603,4.2602,4.2572,4.2572,4.2572,0,0,0,0,0,0,0,0,0,0,0,0,0,4.2699,4.2699,4.2686,4.2686,4.2685,4.2657,4.2657,4.2656,4.2605,4.2604,4.2603,4.2602,4.2572,4.2572,4.2572,0,0,0,0,0,0,0,0,0,0,0,0,0,4.2684,4.2699,4.2686,4.2656,4.2653,4.2657,4.2657,4.2656,4.2606,4.2604,4.2603,4.2601,4.2572,4.2572,4.2572,4.2603,0,0,4.2573,4.2573,0,0,0,0,0,0,0,0,4.2685,4.2684,4.2661,4.2658,4.2655,4.2633,4.265,4.2638,4.2606,4.2624,4.2602,4.2601,4.2594,4.2592,4.259,4.2601,4.26,4.2573,4.2573,4.2573,4.2573,0,0,0,0,0,0,0,4.2686,4.2685,4.2675,4.2661,4.2657,4.2645,4.2642,4.2648,4.2617,4.2622,4.2618,4.2616,4.2592,4.259,4.2589,4.26,4.2573,4.2573,4.2573,4.2573,4.264,4.2642,0,0,0,0,0,0,4.2691,4.2686,4.2675,4.2674,4.2667,4.2646,4.2642,4.2642,4.2617,4.2612,4.2617,4.2613,4.259,4.2589,4.2587,4.2625,4.2573,4.2573,4.2573,4.2639,4.2641,4.2642,0,0,0,0,0,0,4.2692,4.2691,4.2677,4.2679,4.2676,4.2648,4.2648,4.2642,4.264,4.2613,4.2607,4.262,4.2589,4.2587,4.2601,4.2623,4.2573,4.2573,4.2637,4.2639,4.2642,4.2698,0,0,0,0,0,0,4.2692,4.2691,4.2702,4.2679,4.2676,4.269,4.2649,4.2642,4.264,4.2635,4.2615,4.261,4.2588,4.2601,4.2601,4.2622,4.2574,4.2634,4.2638,4.2641,4.2694,4.2702,4.2709,0,0,0,0,0,4.2693,4.2717,4.2702,4.2701,4.2688,4.2691,4.2689,4.2663,4.2642,4.2653,4.2637,4.2611,4.262,4.2602,4.2602,4.2624,4.2633,4.2637,4.2641,4.2691,4.2701,4.2709,0,0,0,0,0,0,4.2741,4.2714,4.2697,4.2714,4.2706,4.2682,4.2695,4.2673,4.267,4.2665,4.2633,4.2629,4.2648,4.2637,4.2617,4.2655,4.2623,4.2627,4.2661,4.2671,4.2678,4.2681,4.2574,0,0,0,0,0,4.2754,4.2758,4.2734,4.2752,4.2749,4.2723,4.2723,4.2704,4.2693,4.2689,4.2673,4.2664,4.2666,4.2667,4.2667,4.2692,4.2689,4.2708,4.2715,4.2722,4.2726,4.2744,4.2753,4.2655,4.2655,4.2655,0,0,4.278,4.2766,4.277,4.2762,4.2752,4.2759,4.272,4.2727,4.2732,4.269,4.2703,4.2692,4.268,4.2701,4.2709,4.2692,4.2753,4.2727,4.2732,4.2733,4.2748,4.2758,4.2766,4.2657,4.2657,4.2657,0,0,4.2832,4.282,4.2836,4.2829,4.2817,4.28,4.2805,4.2785,4.2777,4.2789,4.276,4.2765,4.2767,4.2761,4.2759,4.2814,4.2791,4.2815,4.2855,4.2872,4.288,4.2887,4.291,4.2918,4.2819,4.2819,4.2819,0,4.2866,4.2874,4.2847,4.2858,4.2857,4.2821,4.2839,4.2832,4.282,4.2821,4.2803,4.2808,4.2797,4.2818,4.2833,4.283,4.2836,4.2817,4.2881,4.2887,4.2893,4.2915,4.2924,4.2822,4.2822,4.2821,4.2821,0,4.2919,4.2926,4.294,4.2932,4.2932,4.2946,4.2923,4.2926,4.2909,4.2895,4.2911,4.2897,4.2895,4.2899,4.288,4.2919,4.291,4.2887,4.2854,4.2906,4.2927,4.2934,4.2827,4.2825,4.2825,4.2824,0,0,4.2998,4.2978,4.2984,4.2982,4.2968,4.2973,4.2987,4.2987,4.2992,4.2986,4.2999,4.3004,4.2984,4.2981,4.2962,4.2977,4.3028,4.2953,4.2952,4.297,4.3074,4.3094,4.3104,4.3012,4.3013,4.3015,4.3077,0,4.3049,4.3071,4.305,4.3078,4.3086,4.3054,4.3067,4.3061,4.3049,4.3055,4.3042,4.3048,4.3019,4.3018,4.3031,4.3018,4.3048,4.3013,4.3026,4.3027,4.3032,4.3113,4.3133,4.3192,4.3084,4.3085,4.3086,0,4.311,4.311,4.3139,4.3128,4.313,4.3142,4.3143,4.3148,4.3142,4.3133,4.3133,4.3111,4.3126,4.3094,4.3117,4.3094,4.3098,4.3093,4.3094,4.3096,4.3061,4.312,4.3209,4.3219,4.3097,4.3097,4.3096,0,4.3169,4.3176,4.3195,4.3194,4.318,4.3191,4.3185,4.3178,4.3181,4.3181,4.3184,4.3186,4.3187,4.319,4.3171,4.3149,4.3198,4.3163,4.3193,4.3194,4.3205,4.3205,4.3299,4.3204,4.3204,4.3204,4.3204,0,4.3229,4.3249,4.3223,4.3235,4.3258,4.3234,4.3257,4.3248,4.3243,4.3255,4.3227,4.3238,4.3211,4.3221,4.3206,4.3229,4.3229,4.3224,4.322,4.3228,4.3229,4.3231,4.3228,4.3206,4.3206,4.3205,4.3205,0,4.3298,4.3281,4.3301,4.3289,4.3286,4.3304,4.3293,4.3305,4.3294,4.3309,4.3311,4.3293,4.3303,4.3284,4.3291,4.3281,4.3316,4.3304,4.3318,4.3316,4.3348,4.3347,4.3448,4.3462,4.3356,4.3357,4.3358,0,4.3339,4.3354,4.3344,4.3351,4.3348,4.3358,4.3362,4.334,4.3345,4.3342,4.3356,4.3364,4.337,4.3388,4.3376,4.3383,4.3373,4.3408,4.3373,4.3383,4.3377,4.3378,4.3381,4.3416,4.3417,4.3418,4.3419,0,4.3413,4.3405,4.3412,4.3418,4.3424,4.3427,4.3427,4.3435,4.3412,4.342,4.3431,4.3436,4.3445,4.3455,4.346,4.3456,4.3435,4.343,4.3438,4.3447,4.3456,4.3455,4.334,4.3428,4.3427,4.3426,4.3426,4.3426,4.3471,4.3485,4.3482,4.3492,4.3491,4.3494,4.3506,4.3498,4.3507,4.3514,4.35,4.3516,4.3514,4.3518,4.3517,4.353,4.3515,4.3525,4.3528,4.3532,4.3539,4.3453,4.353,4.353,4.353,4.353,4.3529,0,4.3547,4.3545,4.3554,4.3558,4.3567,4.3548,4.3549,4.3558,4.3573,4.3573,4.358,4.3596,4.3606,4.3597,4.3606,4.3619,4.361,4.3622,4.3622,4.3623,4.355,4.3544,4.363,4.363,4.363,4.363,4.363,4.363,4.3588,4.3612,4.3605,4.363,4.3627,4.3643,4.3646,4.365,4.365,4.3669,4.3679,4.3673,4.367,4.368,4.369,4.3687,4.3694,4.371,4.3704,4.3637,4.3627,4.3618,4.3612,4.3711,4.3711,4.3776,4.3777,4.3777]},{"header":{"parameterUnit":"m.s-1","parameterCategory":1,"la1":30.2991,"la2":30.254,"lo1":-89.0895,"lo2":-89.0444,"dy":0.0017,"dx":0.0017,"nx":28,"ny":28,"refTime":"2024-02-23T09:00:00:Z","depth":0,"parameterNumber":3,"parameterNumberName":"V-component_of_WINDS"},"data":[0,0,0,0,0,0,0,0,0,0,0,0,0,0,0,0,0,0,0,0,0,0,0,0,0,0,0,0,0,0,0,0,0,0,0,0,0,0,0,0,0,0,0,0,0,0,0,0,0,0,0,0,0,0,0,0,0,0,-0.6983,-0.6981,0,-0.6826,-0.6825,-0.6823,-0.6802,-0.6803,-0.6805,-0.6806,-0.664,-0.6635,-0.6629,0,0,0,0,0,0,0,0,0,0,0,0,0,-0.7259,-0.7254,-0.6983,-0.6981,-0.6979,-0.6827,-0.6825,-0.6822,-0.6801,-0.6803,-0.6805,-0.6807,-0.6642,-0.6636,-0.6629,0,0,0,0,0,0,0,0,0,0,0,0,0,-0.7124,-0.7252,-0.6983,-0.695,-0.6946,-0.6827,-0.6824,-0.6822,-0.6801,-0.6803,-0.6806,-0.6808,-0.6645,-0.6636,-0.6628,-0.6529,0,0,-0.6601,-0.6597,0,0,0,0,0,0,0,0,-0.7132,-0.7114,-0.6957,-0.6952,-0.6947,-0.6836,-0.6861,-0.6723,-0.6801,-0.6856,-0.6806,-0.6809,-0.6703,-0.669,-0.6656,-0.6521,-0.6514,-0.66,-0.6595,-0.6591,-0.6589,0,0,0,0,0,0,0,-0.7141,-0.7121,-0.6921,-0.6955,-0.6949,-0.6942,-0.6925,-0.6835,-0.6769,-0.6851,-0.6849,-0.6831,-0.6701,-0.6664,-0.6651,-0.6512,-0.66,-0.6593,-0.6587,-0.6584,-0.629,-0.6287,0,0,0,0,0,0,-0.7157,-0.7129,-0.6926,-0.6916,-0.7047,-0.6935,-0.6917,-0.6869,-0.677,-0.6757,-0.683,-0.6831,-0.6678,-0.6662,-0.6646,-0.6524,-0.6591,-0.6583,-0.6578,-0.6292,-0.6289,-0.6287,0,0,0,0,0,0,-0.7163,-0.714,-0.6932,-0.7022,-0.6995,-0.6928,-0.6875,-0.6865,-0.6828,-0.6754,-0.6741,-0.6804,-0.6679,-0.6658,-0.6559,-0.6518,-0.6579,-0.6571,-0.6296,-0.6292,-0.6288,-0.6281,0,0,0,0,0,0,-0.7171,-0.7142,-0.7105,-0.7021,-0.699,-0.6849,-0.6873,-0.686,-0.6814,-0.6814,-0.6726,-0.6714,-0.6679,-0.6572,-0.655,-0.6507,-0.6565,-0.6299,-0.6294,-0.6289,-0.6284,-0.6277,-0.6271,0,0,0,0,0,-0.7181,-0.7107,-0.7103,-0.7078,-0.6943,-0.6847,-0.6829,-0.6792,-0.6811,-0.6772,-0.6724,-0.6717,-0.6527,-0.6562,-0.6537,-0.6491,-0.6301,-0.6295,-0.629,-0.6287,-0.6279,-0.6271,0,0,0,0,0,0,-0.7185,-0.7096,-0.709,-0.6987,-0.6925,-0.6844,-0.6794,-0.6784,-0.6713,-0.6716,-0.6672,-0.6652,-0.6555,-0.6513,-0.6554,-0.6391,-0.6415,-0.6404,-0.6422,-0.6413,-0.6407,-0.6419,-0.6557,0,0,0,0,0,-0.7175,-0.7106,-0.7031,-0.6947,-0.6917,-0.6861,-0.6818,-0.6795,-0.6728,-0.6701,-0.6646,-0.658,-0.6505,-0.6457,-0.6384,-0.6279,-0.6259,-0.6235,-0.6228,-0.6223,-0.6214,-0.6156,-0.6144,-0.6267,-0.6267,-0.6268,0,0,-0.7151,-0.7094,-0.7052,-0.6947,-0.6896,-0.6825,-0.6839,-0.6762,-0.6709,-0.6689,-0.6593,-0.655,-0.6473,-0.6371,-0.6323,-0.6333,-0.6176,-0.6216,-0.6212,-0.6205,-0.6148,-0.6137,-0.6126,-0.6263,-0.6264,-0.6265,0,0,-0.7072,-0.7022,-0.6947,-0.6897,-0.6821,-0.6784,-0.6767,-0.6687,-0.6658,-0.6562,-0.6546,-0.6481,-0.6353,-0.6299,-0.6255,-0.6158,-0.6148,-0.6135,-0.61,-0.6044,-0.6034,-0.6025,-0.5991,-0.5979,-0.6126,-0.6126,-0.6126,0,-0.7051,-0.6945,-0.6909,-0.6834,-0.6788,-0.6769,-0.6693,-0.6645,-0.6548,-0.6516,-0.6529,-0.637,-0.6317,-0.6202,-0.6179,-0.6144,-0.6122,-0.6145,-0.6039,-0.603,-0.6021,-0.5987,-0.5974,-0.6125,-0.6125,-0.6126,-0.6126,0,-0.6924,-0.685,-0.6799,-0.6709,-0.6657,-0.6581,-0.6534,-0.6485,-0.6467,-0.6429,-0.6331,-0.6267,-0.6181,-0.6152,-0.6133,-0.6035,-0.6044,-0.6048,-0.6071,-0.6009,-0.5976,-0.5963,-0.6124,-0.6124,-0.6125,-0.6125,0,0,-0.6841,-0.6734,-0.6716,-0.6675,-0.6591,-0.6533,-0.6456,-0.6375,-0.6334,-0.6268,-0.6203,-0.6096,-0.6101,-0.6051,-0.6025,-0.5976,-0.5903,-0.5986,-0.5984,-0.5973,-0.5792,-0.5789,-0.5775,-0.5897,-0.5894,-0.5892,-0.5798,0,-0.6752,-0.6618,-0.6585,-0.6469,-0.6401,-0.6383,-0.6316,-0.6257,-0.6219,-0.6155,-0.6113,-0.6038,-0.6049,-0.6019,-0.597,-0.5923,-0.5866,-0.5929,-0.5834,-0.5831,-0.5854,-0.5758,-0.5754,-0.5668,-0.5785,-0.5783,-0.5782,0,-0.663,-0.6565,-0.6443,-0.6369,-0.6339,-0.628,-0.6204,-0.6143,-0.6074,-0.6051,-0.5996,-0.5976,-0.5895,-0.5923,-0.5811,-0.5854,-0.5813,-0.5785,-0.578,-0.577,-0.5803,-0.5744,-0.564,-0.5627,-0.5761,-0.5763,-0.5764,0,-0.6583,-0.6464,-0.6376,-0.6342,-0.6253,-0.6212,-0.6173,-0.6107,-0.6061,-0.5993,-0.5963,-0.5886,-0.5843,-0.5784,-0.5743,-0.5767,-0.5634,-0.5658,-0.5611,-0.5612,-0.5583,-0.5585,-0.5471,-0.5557,-0.5558,-0.5558,-0.5558,0,-0.6487,-0.6413,-0.6354,-0.63,-0.6217,-0.6179,-0.6097,-0.6057,-0.5999,-0.5936,-0.5915,-0.5856,-0.5806,-0.574,-0.5708,-0.562,-0.56,-0.5578,-0.557,-0.558,-0.5583,-0.5552,-0.5557,-0.5554,-0.5555,-0.5556,-0.5556,0,-0.642,-0.6377,-0.628,-0.6205,-0.6185,-0.6127,-0.6062,-0.6008,-0.5971,-0.5891,-0.5871,-0.5811,-0.5733,-0.5687,-0.5587,-0.5565,-0.5467,-0.5462,-0.5491,-0.5487,-0.5443,-0.5448,-0.5304,-0.5283,-0.5384,-0.5383,-0.5382,0,-0.6361,-0.6305,-0.6224,-0.6182,-0.6143,-0.6074,-0.6028,-0.5988,-0.594,-0.5859,-0.5815,-0.5736,-0.567,-0.5545,-0.5492,-0.5416,-0.5408,-0.5364,-0.5396,-0.5408,-0.5408,-0.5412,-0.5406,-0.5358,-0.5357,-0.5356,-0.5355,0,-0.6262,-0.6245,-0.6179,-0.6106,-0.6052,-0.5992,-0.5933,-0.5899,-0.5849,-0.5796,-0.5716,-0.5666,-0.5565,-0.5486,-0.5406,-0.5364,-0.5351,-0.5346,-0.5331,-0.534,-0.5359,-0.5348,-0.5475,-0.5349,-0.535,-0.535,-0.535,-0.5351,-0.6197,-0.6147,-0.6083,-0.6011,-0.5963,-0.5908,-0.5855,-0.5812,-0.5746,-0.5662,-0.5642,-0.5559,-0.5492,-0.5384,-0.534,-0.5273,-0.528,-0.5259,-0.5253,-0.5248,-0.5247,-0.5371,-0.5258,-0.5258,-0.5258,-0.5258,-0.5259,0,-0.6098,-0.6056,-0.5991,-0.5909,-0.5853,-0.5848,-0.5782,-0.5735,-0.5662,-0.5603,-0.5539,-0.5448,-0.5372,-0.5315,-0.5236,-0.5194,-0.5186,-0.5175,-0.5177,-0.5168,-0.5245,-0.5266,-0.5183,-0.5183,-0.5183,-0.5183,-0.5183,-0.5183,-0.6039,-0.5954,-0.5928,-0.5819,-0.5777,-0.5697,-0.566,-0.5609,-0.5562,-0.5462,-0.5399,-0.5363,-0.5304,-0.5221,-0.5151,-0.5136,-0.5108,-0.5098,-0.5082,-0.5154,-0.5162,-0.517,-0.519,-0.5092,-0.5092,-0.501,-0.5009,-0.5009]}]]